Theta_e
289 283 280 284 286 286 284 280 279 283 287 283 282 282 285 288 287 286 284 283 283 284 285 287 288 287 287 286 286 287 286 286 285 284 283 283 282 284 285 286 288 289 289 290
283 280 287 289 288 286 283 279 279 284 286 283 282 282 286 286 284 284 283 283 283 283 284 285 286 286 285 285 285 285 286 285 285 284 283 283 282 283 284 286 287 288 288 289
281 285 288 287 285 283 282 280 280 280 282 283 280 278 281 284 285 285 284 284 284 282 282 282 283 283 283 283 283 284 284 284 284 284 283 283 283 283 283 284 284 286 287 288
283 287 287 284 284 284 281 284 282 280 275 274 280 270 279 281 282 283 283 282 282 281 282 283 283 282 282 281 282 283 284 283 284 283 281 280 280 280 281 282 283 284 286 286
281 284 284 282 284 285 281 284 281 279 276 272 276 268 277 280 278 279 280 281 281 281 281 281 281 282 281 281 281 282 282 282 283 282 282 280 279 280 281 282 282 283 284 285
284 288 286 284 285 285 285 282 281 278 279 273 273 273 274 274 277 280 280 281 282 283 283 283 283 282 282 282 282 281 281 281 282 281 281 280 279 278 279 279 279 280 282 282
282 283 285 287 282 285 281 278 267 271 269 267 276 273 276 279 280 279 278 280 281 283 282 282 282 281 281 280 280 281 280 280 280 280 279 280 279 279 278 279 279 280 279 280
277 274 282 286 282 278 279 276 270 262 266 268 276 267 276 277 276 274 276 276 283 283 283 282 282 281 279 280 279 279 279 279 279 278 278 278 278 278 279 280 280 280 280 281
276 277 284 283 284 282 279 274 278 271 264 264 269 275 278 280 277 277 277 282 283 283 281 280 280 281 280 278 278 278 278 278 277 277 276 276 277 279 281 281 281 281 281 282
281 275 282 282 283 283 280 281 271 268 260 261 268 270 272 274 272 277 275 279 280 281 280 280 280 279 278 277 277 277 276 272 272 275 275 276 275 280 280 280 279 280 280 281
282 277 278 281 277 274 278 273 275 274 270 263 263 268 274 273 272 272 276 279 278 277 277 277 279 278 274 273 272 272 271 268 271 271 272 274 275 280 279 279 279 279 280 280
283 276 271 272 280 282 278 273 273 266 265 264 268 269 272 273 271 272 277 279 276 277 277 277 275 271 268 268 266 266 265 264 267 269 271 273 276 279 278 278 279 280 279 280
281 277 272 274 277 279 277 279 274 271 271 265 266 268 268 268 272 275 273 274 276 279 276 273 270 269 267 265 264 264 264 266 268 268 270 271 271 271 277 278 279 279 279 280
285 277 270 268 269 270 274 277 278 275 264 262 268 266 268 271 273 275 273 275 271 271 271 269 273 272 270 267 265 266 267 266 267 267 268 270 269 270 278 278 278 279 280 280
280 269 270 274 278 273 267 267 275 276 272 270 266 266 268 272 271 273 272 273 272 272 273 271 271 270 267 265 267 265 266 265 265 265 267 269 268 268 273 277 278 279 280 280
280 271 267 264 264 263 269 270 271 276 276 273 274 274 273 270 267 272 272 271 269 268 272 271 270 270 270 269 269 268 268 267 263 266 267 266 264 267 269 270 271 270 271 270
276 271 266 261 265 267 265 267 269 268 264 274 273 274 266 269 269 270 274 269 269 271 269 272 272 273 274 273 276 271 269 266 267 269 270 270 270 272 272 273 273 271 269 269
273 272 267 263 263 260 268 261 264 269 263 263 265 266 266 269 270 271 272 277 269 273 271 272 274 277 276 273 273 275 275 274 272 271 272 273 273 273 274 274 273 272 271 272
276 272 266 263 261 268 272 266 266 269 268 265 270 264 265 266 269 271 272 270 271 271 274 272 274 273 274 273 273 273 272 273 274 273 273 274 274 274 274 274 273 272 272 273
281 277 270 263 258 258 268 269 271 268 267 264 266 264 267 275 267 271 274 273 273 272 271 273 272 272 273 273 274 275 275 274 273 275 276 276 275 275 274 274 274 274 275 276
273 272 269 264 260 266 269 274 277 268 270 265 266 265 269 270 270 268 273 274 273 272 272 273 271 271 271 273 274 273 273 272 275 276 276 277 276 275 275 275 274 274 273 274
266 264 262 265 266 263 273 275 271 270 265 266 264 266 267 265 268 268 271 272 275 273 273 274 273 273 273 275 274 274 273 275 275 275 275 275 274 275 276 272 272 271 271 270
267 271 268 270 270 273 271 272 268 266 268 267 270 269 272 272 271 273 273 274 274 274 274 274 272 272 273 273 273 272 273 273 272 271 271 271 272 274 274 271 271 270 268 270
274 277 274 274 274 272 271 273 272 271 274 276 275 274 274 272 272 271 272 273 273 273 272 272 271 270 270 271 272 271 271 271 269 269 270 272 270 271 270 273 274 272 271 270
276 277 275 274 276 275 276 277 276 274 273 274 274 273 272 272 271 270 271 271 271 271 271 271 270 269 269 270 270 269 270 270 269 269 270 271 272 271 272 273 273 273 274 274
278 276 275 274 279 279 278 277 277 276 274 274 273 272 273 272 270 270 270 270 270 269 269 268 268 268 268 269 268 267 268 268 267 268 269 269 270 271 273 273 273 278 280 280
Wind_Speed
4 4 7 9 8 1 3 3 4 5 2 5 6 10 14 14 7 6 8 7 9 10 5 8 10 9 9 8 8 6 6 4 2 2 1 2 2 3 3 3 5 5 4 4
4 7 5 5 5 3 2 1 5 6 3 3 6 16 17 7 6 6 7 7 7 6 7 7 7 7 6 6 6 6 5 4 2 2 1 1 1 3 4 3 4 3 5 4
7 1 5 3 1 3 2 4 2 3 7 2 7 8 6 5 6 7 7 6 5 6 5 3 3 3 4 4 4 6 5 4 2 2 1 2 2 2 3 3 3 4 5 5
5 5 4 3 3 5 2 1 1 2 5 2 5 7 5 4 6 6 5 6 5 5 3 4 5 5 4 3 4 4 4 2 1 2 2 2 1 2 1 2 3 4 5 5
5 5 4 3 2 3 4 2 2 2 3 5 3 4 8 3 2 2 4 4 4 1 1 2 5 4 3 4 3 2 2 1 0 1 1 1 2 2 2 3 5 4 4 4
3 1 3 3 3 3 2 2 3 2 2 2 5 5 5 2 5 1 2 2 5 6 6 5 4 4 3 3 3 3 2 0 1 1 2 3 3 4 3 4 3 3 2 3
3 2 2 2 4 1 5 4 3 3 1 7 4 1 7 4 3 3 3 7 7 6 3 2 3 4 5 5 4 3 2 1 1 1 2 3 4 3 4 4 4 4 3 3
7 4 3 1 2 6 3 6 6 7 3 5 2 6 7 5 5 4 5 6 5 6 5 4 4 2 2 3 3 1 1 1 2 2 3 3 4 2 3 3 3 3 4 5
5 2 3 5 2 2 3 2 3 5 3 3 4 4 4 2 5 6 6 6 7 7 7 6 5 3 4 3 1 0 1 1 2 3 3 4 4 3 3 4 3 3 5 5
3 6 2 3 3 4 2 3 5 3 1 4 6 4 7 4 4 5 7 8 8 7 8 6 4 4 3 2 1 1 2 1 1 3 3 3 4 5 4 3 4 5 5 5
4 5 3 3 5 7 2 1 1 3 4 6 2 8 4 8 6 6 7 6 7 7 7 7 5 2 2 1 1 2 3 3 4 3 3 3 5 4 4 4 5 5 5 5
3 5 3 3 0 3 3 6 5 6 6 2 3 9 5 7 5 5 6 4 5 4 6 6 5 3 3 4 3 4 4 4 5 3 4 4 4 4 4 4 4 5 5 4
5 3 5 1 1 1 3 5 3 3 2 6 6 8 2 3 4 5 4 4 4 4 6 6 5 5 5 4 4 5 5 6 5 5 4 4 5 4 5 4 5 5 5 5
4 3 6 7 6 6 6 10 10 5 3 4 8 5 5 4 5 7 5 4 4 5 6 5 7 7 7 5 5 5 6 6 5 5 4 5 5 5 4 4 5 5 5 5
4 5 2 3 5 2 6 7 12 17 12 8 5 7 6 6 5 4 4 5 4 5 8 6 6 6 5 5 5 6 6 5 4 4 4 7 5 5 4 5 5 5 5 4
2 3 3 4 3 5 5 10 10 16 14 12 13 23 8 4 2 4 5 5 4 4 8 7 6 6 6 5 6 5 6 6 4 5 7 6 4 4 5 5 6 4 5 5
5 5 3 5 1 1 7 11 13 5 4 11 13 11 2 3 5 5 6 4 2 6 7 8 8 7 6 6 6 6 6 3 5 6 6 6 5 5 6 5 5 5 5 4
6 5 4 4 3 1 8 2 4 7 5 5 2 5 5 5 6 3 2 4 4 6 6 7 7 7 7 4 6 5 4 4 5 6 7 6 5 6 5 5 6 5 3 6
4 4 1 4 3 6 1 5 7 7 7 6 8 3 4 5 3 3 2 2 3 5 6 6 6 5 6 7 7 5 4 4 4 7 7 6 6 7 6 7 7 5 4 5
1 4 4 3 4 6 8 4 5 4 5 3 6 3 1 3 3 4 4 3 4 5 3 5 6 5 6 7 7 6 5 5 6 8 8 7 8 8 9 9 8 5 5 7
4 2 5 4 3 9 6 4 5 6 7 4 5 4 3 3 5 5 7 6 3 3 6 5 5 6 6 7 7 6 6 6 7 7 8 7 7 8 9 8 6 5 6 6
7 7 4 3 3 10 5 5 7 6 2 4 3 3 2 4 5 5 6 6 6 6 6 6 8 9 8 9 9 9 8 10 10 9 9 8 7 7 6 8 6 6 5 6
2 7 6 9 7 4 4 4 3 4 5 3 3 3 1 2 3 5 6 6 8 8 8 8 9 10 8 8 9 10 11 10 11 10 9 9 8 7 6 6 7 5 4 5
4 4 2 3 3 4 4 2 3 3 4 4 3 3 2 2 4 5 5 6 7 8 8 8 9 9 10 9 9 9 11 10 10 10 10 9 6 7 5 6 6 6 6 6
4 5 5 4 2 2 2 4 7 5 4 6 4 4 4 3 4 4 5 6 7 9 8 8 8 9 10 10 10 9 10 10 11 10 10 9 7 5 7 6 7 7 8 9
6 7 6 6 6 3 3 10 8 7 5 4 4 4 5 5 4 5 4 5 6 8 8 8 8 9 10 10 10 10 9 10 10 10 8 7 7 6 6 6 7 14 19 20
Wind_Direction
211 114 209 209 211 162 141 172 237 272 338 338 254 285 283 281 294 335 65 57 66 56 37 51 68 81 93 91 105 116 120 122 95 31 359 6 321 318 311 313 307 317 307 320
60 220 204 151 128 130 97 303 275 281 68 359 297 293 293 347 71 85 77 66 65 67 43 47 63 72 77 115 122 126 120 112 102 101 300 260 277 279 274 299 317 356 29 10
161 180 141 139 165 159 205 204 263 240 335 309 325 311 349 44 81 78 64 86 73 116 115 81 76 94 109 132 144 113 113 98 64 45 19 327 325 339 358 355 342 352 351 340
228 182 173 173 196 124 194 122 97 22 51 257 56 282 334 59 68 69 69 69 73 62 110 167 171 168 148 117 113 119 121 103 0 61 44 357 305 300 315 314 320 340 350 350
227 153 132 130 149 101 194 115 134 97 70 49 318 79 271 183 59 45 84 75 51 37 250 201 151 144 119 136 134 116 156 159 149 75 20 330 301 297 313 334 336 325 319 13
110 51 82 129 104 105 120 71 72 71 80 321 242 145 267 249 205 112 121 346 321 305 283 254 208 188 217 197 191 213 164 175 54 52 3 349 319 321 340 317 309 296 324 356
119 127 85 77 106 174 69 70 360 338 358 221 257 111 249 231 222 186 278 309 311 304 300 282 225 230 251 232 230 190 170 267 330 6 345 329 306 321 298 298 303 339 11 3
153 270 136 36 144 175 155 141 156 210 236 257 326 241 262 218 254 258 252 272 310 332 314 292 260 222 243 201 165 132 126 281 24 7 343 330 319 276 278 294 339 340 333 321
127 125 90 62 31 58 185 156 145 95 31 45 231 283 348 135 345 348 332 328 319 314 311 302 272 238 235 220 215 103 322 328 28 355 327 314 292 313 305 323 325 304 295 289
174 103 154 129 55 34 117 163 65 5 172 268 289 264 230 199 283 312 326 330 320 317 328 311 304 259 224 185 118 30 36 237 280 298 291 301 312 286 284 287 278 273 268 273
122 96 135 100 201 171 148 57 136 122 165 163 261 265 219 169 209 246 289 307 305 312 322 311 300 288 169 148 234 267 281 273 274 282 296 293 276 289 284 276 268 267 273 277
158 134 144 201 55 306 182 191 149 137 247 209 152 271 202 179 204 220 275 300 290 305 331 317 296 276 258 259 260 246 253 244 248 262 250 259 288 272 283 265 276 270 275 274
179 151 128 143 95 19 229 192 176 144 100 206 145 258 299 265 304 259 276 306 339 338 337 324 337 296 273 271 258 246 245 254 256 241 245 267 268 278 269 272 275 283 281 277
97 111 161 180 190 142 195 209 203 153 145 200 226 256 293 264 308 317 305 303 311 317 318 314 346 333 309 278 257 253 257 239 245 236 241 249 254 253 258 275 274 270 265 266
104 172 104 269 243 232 197 190 200 211 212 190 240 213 250 238 239 260 275 296 325 343 335 327 322 300 301 292 271 253 247 245 227 229 242 248 248 250 264 259 258 264 261 268
82 148 92 305 344 183 246 229 212 223 236 254 271 281 212 259 322 315 275 286 301 311 309 311 297 294 306 296 282 255 247 239 192 229 242 252 249 245 247 251 257 264 273 274
145 129 96 268 228 96 305 226 188 193 234 211 241 245 232 307 317 287 298 234 267 304 297 310 303 301 299 299 296 269 245 212 217 230 245 248 241 245 242 239 243 248 252 249
141 119 113 228 38 332 241 234 173 194 222 220 289 247 209 205 250 278 49 69 311 309 294 297 299 306 299 291 301 288 253 226 226 239 248 245 238 242 243 242 243 247 233 247
139 134 141 149 214 287 314 225 165 157 275 206 213 253 250 292 336 275 204 188 233 253 274 269 294 290 308 315 310 305 293 261 249 250 245 239 231 241 237 240 242 243 238 244
213 99 129 79 144 221 242 247 185 134 303 238 144 189 238 4 355 256 319 294 312 289 280 302 320 308 328 324 321 307 297 283 265 266 256 237 231 232 238 239 241 237 231 252
147 135 199 182 219 284 236 196 173 93 235 204 151 190 202 214 210 254 324 332 287 301 315 337 331 319 311 318 328 320 299 292 284 279 272 260 236 231 235 239 229 235 244 249
157 144 193 140 186 266 158 91 164 211 357 148 145 195 211 241 293 302 308 316 342 342 346 348 344 335 334 339 341 336 331 332 324 312 300 281 258 248 239 224 235 232 232 245
233 182 185 183 215 220 212 169 223 149 142 200 148 198 204 301 320 330 335 347 348 349 345 349 341 332 337 341 343 335 331 329 326 316 302 290 280 267 243 230 242 236 217 235
262 177 210 58 264 209 162 79 148 158 140 133 111 111 69 356 345 345 339 349 346 346 346 343 340 340 335 340 337 333 328 325 318 313 312 302 282 279 251 253 246 238 234 233
199 139 196 261 288 40 206 186 158 151 120 108 102 100 75 34 15 357 340 347 342 339 340 342 341 338 331 330 333 332 330 327 325 318 317 316 304 281 279 254 248 242 244 229
186 186 181 220 203 169 178 152 149 146 136 122 126 99 70 53 20 354 338 340 339 333 335 340 336 335 332 330 330 330 332 325 323 321 321 314 309 306 298 280 277 259 262 261